Weather History for Pittsfield, IL

Change the Weather History Date:

Friday, January 6, 2006

  Actual Average (KUIN) Record (KUIN)
Temperature  
Mean Temperature 31 °F 26 °F  
Max Temperature 32 °F 34 °F 66 °F (2008)
Min Temperature 30 °F 19 °F -13 °F (2014)
Degree Days  
Heating Degree Days 34 39  
Month to date heating degree days 230  
Since 1 July heating degree days 2421  
Cooling Degree Days 0 0  
Month to date cooling degree days 0  
Year to date cooling degree days 0  
Moisture  
Dew Point 25 °F    
Average Humidity 79    
Maximum Humidity 80    
Minimum Humidity 75    
Precipitation  
Precipitation 0.00 in 0.05 in 0.43 in (1998)
Month to date precipitation 0.33  
Year to date precipitation 0.33  
Sea Level Pressure  
Sea Level Pressure 30.17 in    
Wind  
Wind Speed 10 mph (West)    
Max Wind Speed 16 mph    
Max Gust Speed 18 mph    
Visibility 10 miles    
Events      
T = Trace of Precipitation, MM = Missing Value Source: NWS Daily Summary

Daily Weather History Graph

Daily Weather History Graph

Search for Another Location

Airport:

Trip Planner

Search our weather history database for the weather conditions in past years. The results will help you decide how hot, cold, wet, or windy it might be!

Date:

Astronomy

Jan. 06, 2006 Rise Set
Actual Time 7:24 AM CST 4:54 PM CST
Civil Twilight 6:54 AM CST 5:24 PM CST
Nautical Twilight 6:20 AM CST 5:57 PM CST
Astronomical Twilight 5:47 AM CST 6:30 PM CST
Moon 11:33 AM CST (1/6) No Moon Set
Length of Visible Light 10h 30m
Length of Day
9h 30m
Waxing Crescent, 49% of the Moon is Illuminated
Jan 6
Waxing Crescent
Jan 6
First Quarter
Jan 14
Full
Jan 22
Last Quarter
Jan 29
New

Hourly Weather History & Observations

Time (CST) Temp. Windchill Dew Point Humidity Pressure Visibility Wind Dir Wind Speed Gust Speed Precip Events Conditions
12:02 AM 32.0 °F 22.1 °F 24.8 °F 75% 30.20 in 10.0 mi West 13.8 mph - N/A   Overcast
12:22 AM 32.0 °F 24.2 °F 24.8 °F 75% 30.21 in 10.0 mi West 9.2 mph - N/A   Overcast
12:42 AM 32.0 °F 23.0 °F 24.8 °F 75% 30.20 in 10.0 mi WNW 11.5 mph - N/A   Overcast
1:03 AM 32.0 °F 23.0 °F 24.8 °F 75% 30.21 in 10.0 mi West 11.5 mph 17.3 mph N/A   Overcast
1:22 AM 32.0 °F 23.6 °F 24.8 °F 75% 30.20 in 10.0 mi WNW 10.4 mph - N/A   Overcast
1:42 AM 32.0 °F 21.2 °F 24.8 °F 75% 30.21 in 10.0 mi WNW 16.1 mph - N/A   Overcast
2:03 AM 32.0 °F 23.6 °F 24.8 °F 75% 30.21 in 10.0 mi WNW 10.4 mph - N/A   Overcast
2:22 AM 32.0 °F 23.0 °F 24.8 °F 75% 30.21 in 10.0 mi WNW 11.5 mph - N/A   Overcast
2:42 AM 32.0 °F 23.6 °F 24.8 °F 75% 30.22 in 10.0 mi WNW 10.4 mph - N/A   Overcast
3:02 AM 32.0 °F 23.0 °F 24.8 °F 75% 30.21 in 10.0 mi WNW 11.5 mph - N/A   Overcast
3:23 AM 32.0 °F 22.5 °F 24.8 °F 75% 30.22 in 10.0 mi West 12.7 mph 17.3 mph N/A   Overcast
3:42 AM 32.0 °F 22.5 °F 24.8 °F 75% 30.21 in 10.0 mi West 12.7 mph - N/A   Overcast
4:02 AM 30.2 °F 22.6 °F 24.8 °F 80% 30.21 in 10.0 mi WNW 8.1 mph - N/A   Overcast
4:22 AM 30.2 °F 21.3 °F 24.8 °F 80% 30.22 in 10.0 mi WNW 10.4 mph - N/A   Overcast
4:42 AM 30.2 °F 21.3 °F 24.8 °F 80% 30.23 in 10.0 mi WNW 10.4 mph - N/A   Overcast
5:02 AM 30.2 °F 21.3 °F 24.8 °F 80% 30.23 in 10.0 mi WNW 10.4 mph - N/A   Overcast
5:22 AM 30.2 °F 21.9 °F 24.8 °F 80% 30.24 in 10.0 mi WNW 9.2 mph - N/A   Overcast
5:42 AM 30.2 °F 21.3 °F 24.8 °F 80% 30.24 in 10.0 mi West 10.4 mph - N/A   Overcast
6:03 AM 30.2 °F 21.3 °F 24.8 °F 80% 30.25 in 10.0 mi WNW 10.4 mph - N/A   Overcast
6:22 AM 30.2 °F 19.8 °F 24.8 °F 80% 30.25 in 10.0 mi WNW 13.8 mph 18.4 mph N/A   Overcast
6:43 AM 30.2 °F 21.9 °F 24.8 °F 80% 30.25 in 10.0 mi West 9.2 mph - N/A   Overcast
7:03 AM 30.2 °F 23.4 °F 24.8 °F 80% 30.25 in 10.0 mi WNW 6.9 mph - N/A   Overcast
7:22 AM 30.2 °F 24.3 °F 24.8 °F 80% 30.25 in 10.0 mi WNW 5.8 mph - N/A   Overcast
8:02 AM 30.2 °F 23.4 °F 24.8 °F 80% 30.25 in 10.0 mi West 6.9 mph - N/A   Overcast
8:22 AM 30.2 °F 23.4 °F 24.8 °F 80% 30.26 in 10.0 mi WNW 6.9 mph - N/A   Overcast
8:42 AM 30.2 °F 23.4 °F 23.0 °F 75% 30.27 in 10.0 mi WNW 6.9 mph - N/A   Overcast
9:22 AM 30.2 °F 24.3 °F 24.8 °F 80% 30.27 in 10.0 mi West 5.8 mph - N/A   Overcast
9:42 AM 30.2 °F 24.3 °F 23.0 °F 75% 30.27 in 10.0 mi WNW 5.8 mph - N/A   Overcast
10:02 AM 30.2 °F 23.4 °F 24.8 °F 80% 30.27 in 10.0 mi West 6.9 mph - N/A   Overcast
10:22 AM 30.2 °F 23.4 °F 24.8 °F 80% 30.25 in 10.0 mi West 6.9 mph - N/A   Overcast
10:43 AM 30.2 °F 26.7 °F 23.0 °F 75% 30.25 in 10.0 mi WNW 3.5 mph - N/A   Overcast
11:02 AM 30.2 °F 23.4 °F 24.8 °F 80% 30.23 in 10.0 mi WSW 6.9 mph - N/A   Overcast
11:22 AM 30.2 °F 23.4 °F 24.8 °F 80% 30.21 in 10.0 mi West 6.9 mph - N/A   Overcast
11:42 AM 30.2 °F 24.3 °F 24.8 °F 80% 30.20 in 10.0 mi West 5.8 mph - N/A   Overcast
12:02 PM 30.2 °F 21.9 °F 24.8 °F 80% 30.19 in 10.0 mi SW 9.2 mph - N/A   Overcast
12:22 PM 30.2 °F 21.9 °F 24.8 °F 80% 30.18 in 10.0 mi West 9.2 mph 17.3 mph N/A   Overcast
12:42 PM 30.2 °F 22.6 °F 24.8 °F 80% 30.17 in 10.0 mi WSW 8.1 mph - N/A   Overcast
1:03 PM 30.2 °F 21.9 °F 24.8 °F 80% 30.16 in 10.0 mi WSW 9.2 mph - N/A   Overcast
1:22 PM 30.2 °F 22.6 °F 24.8 °F 80% 30.15 in 10.0 mi WSW 8.1 mph - N/A   Overcast
1:42 PM 32.0 °F 23.6 °F 24.8 °F 75% 30.14 in 10.0 mi WSW 10.4 mph - N/A   Overcast
2:02 PM 32.0 °F 23.6 °F 24.8 °F 75% 30.13 in 10.0 mi SW 10.4 mph - N/A   Mostly Cloudy
2:22 PM 32.0 °F 24.2 °F 26.6 °F 80% 30.13 in 10.0 mi WSW 9.2 mph - N/A   Mostly Cloudy
2:42 PM 32.0 °F 24.2 °F 26.6 °F 80% 30.13 in 7.0 mi WSW 9.2 mph - N/A   Overcast
3:02 PM 32.0 °F 25.6 °F 26.6 °F 80% 30.13 in 7.0 mi WSW 6.9 mph - N/A   Mostly Cloudy
3:22 PM 32.0 °F 24.2 °F 24.8 °F 75% 30.13 in 10.0 mi SW 9.2 mph - N/A   Mostly Cloudy
3:42 PM 32.0 °F 24.2 °F 26.6 °F 80% 30.13 in 10.0 mi WSW 9.2 mph - N/A   Overcast
4:02 PM 32.0 °F 24.8 °F 26.6 °F 80% 30.13 in 10.0 mi WSW 8.1 mph - N/A   Overcast
4:22 PM 32.0 °F 27.5 °F 26.6 °F 80% 30.12 in 10.0 mi WSW 4.6 mph - N/A   Mostly Cloudy
4:42 PM 32.0 °F 24.2 °F 26.6 °F 80% 30.12 in 10.0 mi WSW 9.2 mph - N/A   Mostly Cloudy
5:02 PM 32.0 °F 25.6 °F 26.6 °F 80% 30.11 in 10.0 mi WSW 6.9 mph - N/A   Scattered Clouds
5:22 PM 32.0 °F 23.6 °F 26.6 °F 80% 30.10 in 10.0 mi WSW 10.4 mph - N/A   Mostly Cloudy
5:42 PM 32.0 °F 24.8 °F 26.6 °F 80% 30.09 in 10.0 mi WSW 8.1 mph - N/A   Mostly Cloudy
6:02 PM 32.0 °F 25.6 °F 26.6 °F 80% 30.08 in 10.0 mi WSW 6.9 mph - N/A   Mostly Cloudy
6:22 PM 32.0 °F 25.6 °F 26.6 °F 80% 30.07 in 10.0 mi WSW 6.9 mph - N/A   Overcast
6:42 PM 32.0 °F 24.8 °F 26.6 °F 80% 30.05 in 10.0 mi WSW 8.1 mph - N/A   Overcast
7:02 PM 32.0 °F 24.8 °F 26.6 °F 80% 30.06 in 10.0 mi SW 8.1 mph - N/A   Overcast
7:22 PM 32.0 °F 23.6 °F 26.6 °F 80% 30.05 in 10.0 mi SW 10.4 mph - N/A   Overcast
7:44 PM 32.0 °F 23.6 °F 26.6 °F 80% 30.03 in 10.0 mi SW 10.4 mph - N/A   Overcast
8:02 PM 32.0 °F 23.0 °F 26.6 °F 80% 30.02 in 10.0 mi SW 11.5 mph - N/A   Mostly Cloudy
8:23 PM 32.0 °F 24.8 °F 26.6 °F 80% 30.01 in 10.0 mi WSW 8.1 mph - N/A   Mostly Cloudy
8:42 PM 32.0 °F 25.6 °F 26.6 °F 80% 30.00 in 10.0 mi WSW 6.9 mph - N/A   Mostly Cloudy
9:03 PM 32.0 °F 26.4 °F 26.6 °F 80% 29.99 in 10.0 mi WSW 5.8 mph - N/A   Scattered Clouds
9:22 PM 33.8 °F 26.4 °F 26.6 °F 75% 29.98 in 10.0 mi WSW 9.2 mph - N/A   Mostly Cloudy
10:02 PM 33.8 °F 24.3 °F 26.6 °F 75% 29.96 in 10.0 mi SW 13.8 mph - N/A   Overcast
10:22 PM 35.6 °F 27.1 °F 26.6 °F 70% 29.95 in 10.0 mi WSW 12.7 mph 20.7 mph N/A   Overcast
10:44 PM 35.6 °F 28.0 °F 26.6 °F 70% 29.95 in 10.0 mi WSW 10.4 mph - N/A   Overcast
11:03 PM 35.6 °F 27.5 °F 28.4 °F 75% 29.93 in 10.0 mi WSW 11.5 mph - N/A   Overcast
11:22 PM 35.6 °F 27.5 °F 28.4 °F 75% 29.92 in 10.0 mi WSW 11.5 mph - N/A   Overcast
11:43 PM 37.4 °F 29.3 °F 28.4 °F 70% 29.91 in 10.0 mi WSW 12.7 mph 17.3 mph N/A   Overcast